Regional Weather Roundup
Issued by NWS State College, PA

Home | Current Version | Previous Version | Text Only | Print | Product List | Glossary On
Versions: 1 2 3 4 5 6 7 8 9 10 11 12 13 14 15 16 17 18 19 20 21 22 23 24 25 26 27 28 29 30 31 32 33 34 35 36 37 38 39 40 41 42 43 44 45 46 47 48 49 50
000
ASUS41 KCTP 250803
RWRCTP

REGIONAL WEATHER ROUNDUP
NATIONAL WEATHER SERVICE STATE COLLEGE PA
400 AM EDT SAT OCT 25 2014

Note: "fair" indicates few or no clouds below 12,000 feet with no
significant weather and/or obstructions to visibility.

* = STATION THAT DOES NOT REPORT PRECIPITATION /E.G. RAIN...SNOW...ETC/
    THUNDER OR FOG.

PAZ002>004-007>009-013>016-020>023-029>032-250900-
WESTERN PENNSYLVANIA

CITY           SKY/WX    TMP DP  RH WIND       PRES   REMARKS
ERIE           CLOUDY    53  43  68 SW7       29.92F
MEADVILLE      MOCLDY    47  40  76 S6        29.94F
FRANKLIN*      CLOUDY    45  37  76 SW7       29.96F
NEW CASTLE       N/A     40  38  93 CALM      29.97F
BEAVER COUNTY  NOT AVBL
BUTLER*        CLOUDY    46  37  71 CALM      29.99F
PITTSBURGH INT CLOUDY    49  40  71 W5        29.98S
PITTSBURGH     CLOUDY    49  37  63 S7        29.98S
INDIANA*       CLOUDY    46  41  81 CALM      30.01S
LATROBE        CLOUDY    48  43  81 SW9       29.99F
WASHINGTON CO* CLOUDY    46  41  81 W3        30.01S
$$

PAZ004>006-010>012-017>019-024>028-033>037-041-042-045-046-049>053-250900-
CENTRAL PENNSYLVANIA

CITY           SKY/WX    TMP DP  RH WIND       PRES   REMARKS
BRADFORD       CLOUDY    47  39  74 SW3       29.92F
DUBOIS         CLOUDY    45  39  79 SW5       29.94F
CLEARFIELD     MOCLDY    44  38  79 SW5       29.95F
JOHNSTOWN      MOCLDY    47  36  65 W9        29.96F
ALTOONA        CLEAR     46  39  76 SW9       29.96F
STATE COLLEGE  PTCLDY    48  38  68 W10       29.95S
WILLIAMSPORT   CLEAR     41  33  73 CALM      29.93F
SELINSGROVE    CLEAR     40  37  89 CALM      29.94F
FT INDIANTOWN  CLEAR     55  40  57 VRB5      29.92S
CAPITAL CITY   CLEAR     50  38  63 W8        29.93S
HARRISBURG     CLEAR     46  39  76 CALM      29.92F
YORK           CLEAR     40  36  86 CALM      29.94S
$$

PAZ038>040-043-044-047-048-054-055-060>062-067>071-250900-
EASTERN PENNSYLVANIA

CITY           SKY/WX    TMP DP  RH WIND       PRES   REMARKS
SCRANTON       CLEAR     40  30  67 CALM      29.92R
MOUNT POCONO   CLEAR     43  30  60 NW12      29.87F
ALLENTOWN      CLEAR     46  33  60 CALM      29.90F
QUAKERTOWN*    SUNNY     39  32  75 CALM      29.91S
READING        CLEAR     50  36  58 NW5       29.91S
LANCASTER      CLEAR     46  38  73 W6        29.93S
COATESVILLE    SUNNY     46  39  76 NW9       29.92S
POTTSTOWN      CLEAR     44  35  70 CALM      29.92S
BLUE BELL      CLEAR     43  37  81 CALM      29.89S
DOYLESTOWN     CLEAR     42  33  70 CALM      29.89S
WILLOW GROVE   NOT AVBL
NORTH PHILA    CLEAR     48  33  56 W3        29.91S
PHILADELPHIA   CLEAR     51  36  56 CALM      29.91S
$$



USA.gov is the U.S. government's official web portal to all federal, state and local government web resources and services.